Regional Weather Roundup
Issued by NWS New Orleans/Baton Rouge, LA

Home | Current Version | Previous Version | Text Only | Print | Product List | Glossary Off
Versions: 1 2 3 4 5 6 7 8 9 10 11 12 13 14 15 16 17 18 19 20 21 22 23 24 25 26 27 28 29 30 31 32 33 34 35 36 37 38 39 40 41 42 43 44 45 46 47 48 49 50

490
ASUS44 KLIX 291110
RWRLIX
NEW ORLEANS REGIONAL WEATHER ROUNDUP
NATIONAL WEATHER SERVICE NEW ORLEANS LA
500 AM CST THU JAN 29 2015

NOTE: "FAIR" INDICATES FEW OR NO CLOUDS BELOW 12,000 FEET WITH NO
      SIGNIFICANT WEATHER AND/OR OBSTRUCTIONS TO VISIBILITY.
      SKY/WX - SKY CONDITION AND SIGNIFICANT WEATHER.
      TMP - AIR TEMPERATURE.     DP    - DEWPOINT TEMPERATURE.
      RH  - RELATIVE HUMIDITY.   PRES  - PRESSURE.
      HI  - HEAT INDEX.          WCI   - WIND CHILL INDEX.

*  THESE STATIONS ARE NOT NWS OR FAA STATIONS AND ARE NOT UNDER
   NWS QUALITY CONTROL.

LAZ038-040-048-061>063-065>067-069-291200-
SOUTHEAST LOUISIANA

CITY           SKY/WX    TMP DP  RH WIND       PRES   REMARKS
N.O. AUDUBON   NOT AVBL
N.O. INTL ARPT PTCLDY    46  43  89 CALM      30.24R
N.O. LAKEFRONT CLEAR     51  46  83 CALM      30.25R
N.O. DOWNTOWN* NOT AVBL
SLIDELL        CLEAR     37  35  92 CALM      30.24R
BATON ROUGE    CLEAR     45  42  89 CALM      30.19F
BOOTHVILLE     CLEAR     50  47  89 E3        30.25S
BELLE CHASSE   CLEAR     41  37  86 CALM      30.24R FOG
BOGALUSA*        N/A     37  35  90 CALM      30.25F
GALLIANO*      FOG       41  40  98 MISG      30.23S VSB 1/4
NEW ROADS*       N/A     46  44  93 CALM      30.20S
GONZALES*        N/A     46  46 100 SE3       30.20F FOG
HAMMOND*       CLEAR     39  37  93 CALM      30.23F
HOUMA*         CLEAR     42  42 100 CALM      30.23S FOG
PORT FOURCHON* SUNNY     63  57  82 SE5       30.26S

$$

MSZ070-080>082-291200-
SOUTHERN MISSISSIPPI

CITY           SKY/WX    TMP DP  RH WIND       PRES   REMARKS
MCCOMB         CLEAR     45  41  86 CALM      30.19F
GULFPORT       CLEAR     40  38  93 CALM      30.24S
BILOXI         CLEAR     45  45 100 NE2       30.24R
PASCAGOULA     CLEAR     36  35  96 CALM      30.25S

$$

COASTAL OBSERVATIONS
LAKE AND NEARSHORE STATIONS

STATION/POSITION TIME  TEMP    WIND        PRES    WAVE
                       AIR SEA DIR/SP/G            HT/PER
                 (UTC) (F)     (DEG/KT/KT) (MB)    (FT/S)
PASCAGOULA       1100   56     130/  1/  6 1023.6
WAVELAND YACHT   1100   54     140/  4/  8 1022.8
GRAND ISLE       1100   61 63  150/  3/  3 1024.2
SOUTHWEST PASS   1100   52 45   90/  5/  6 1024.2
NEW CANAL        1100   51 54     CALM     1024.4
SHELL BEACH      1100   52 56  160/  5/  6 1023.6

OFFSHORE STATIONS

STATION/POSITION TIME  TEMP    WIND        PRES    WAVE
                       AIR SEA DIR/SP/G            HT/PER
                 (UTC) (F)     (DEG/KT/KT) (MB)    (FT/S)
64 S DAUPHIN ISL 1050   63 68  150/  8/ 10 1024.7    2/ 4

$$




USA.gov is the U.S. government's official web portal to all federal, state and local government web resources and services.